Tracking 19146 objects as of 24-Apr-2018
HD Live streaming from Space Station
objects crossing your sky now

GAOFEN 1-03

Track GAOFEN 1-03 now!
10-day predictions


NORAD ID: 43260
Int'l Code: 2018-031B
Perigee: 640.9 km
Apogee: 648.7 km
Inclination: 98.0 °
Period: 97.5 minutes
Semi major axis: 7015 km
RCS: Unknown
Launch date: March 31, 2018
Source: People's Republic of China (PRC)
Launch site: Taiyaun Space Center, China (TSC)
aabbcc
Your satellite tracking list
Your tracking list is empty




NASA's NSSDC Master Catalog

Two Line Element Set (TLE):
1 43260U 18031B   18114.36615231  .00000106  00000-0  22211-4 0  9999
2 43260  98.0326 190.1359 0005516 224.7358 135.3408 14.77357819  3572
Source of the keplerian elements: AFSPC